Location: Powder Track
(41.8531°N, 72.3584°W)
Time: 07:44:13
(UTC+00:00)

Transit 4A - Pass Details

Date: 13 August 2021
Orbit: 871 x 974 km, 66.8° (Epoch: 20 September)

Event Time Altitude Azimuth Distance (km) Brightness Sun altitude
Rises 09:13:27 0° 338° (NNW) 3,478 11.0 -8.0°
Reaches altitude 10° 09:16:33 10° 353° (N) 2,546 10.5 -7.5°
Maximum altitude 09:21:00 22° 43° (NE) 1,863 10.6 -6.8°
Drops below altitude 10° 09:25:31 10° 92° (E) 2,581 11.4 -6.0°
Sets 09:28:39 0° 108° (ESE) 3,538 11.7 -5.5°
